DW9210 Weather Reports


time (UTC)temp
C
wind
direction
speed
KPH
gust
KPH
rain 1hr
cm
rain 24hr
cm
rain mn
cm
humidity
%
barometer
mb
20260902223003 35 247 3.2 8.0 0.00 0.00 0.00 52 1014.4
20260902222503 35 257 3.2 8.0 0.00 0.00 0.00 49 1014.4
20260902222003 35 261 4.8 12.9 0.00 0.00 0.00 54 1014.4
20260902221503 35 262 4.8 12.9 0.00 0.00 0.00 53 1014.5
20260902221003 35 252 3.2 6.4 0.00 0.00 0.00 51 1014.5
20260902220503 35 241 3.2 9.7 0.00 0.00 0.00 53 1014.6
20260902220003 35 243 3.2 9.7 0.00 0.00 0.00 53 1014.7
20260902215503 35 243 3.2 9.7 0.00 0.00 0.00 49 1014.6
20260902215003 35 256 3.2 9.7 0.00 0.00 0.00 51 1014.7
20260902214503 35 260 4.8 9.7 0.00 0.00 0.00 53 1014.7
20260902214003 35 256 3.2 8.0 0.00 0.00 0.00 54 1014.7
20260902213503 35 267 3.2 8.0 0.00 0.00 0.00 50 1014.7
20260902213003 35 277 3.2 9.7 0.00 0.00 0.00 53 1014.7
20260902212503 35 270 4.8 12.9 0.00 0.00 0.00 51 1014.7
20260902212003 36 268 4.8 12.9 0.00 0.00 0.00 52 1014.7
20260902211503 35 262 4.8 12.9 0.00 0.00 0.00 48 1014.8
20260902211024 35 247 3.2 9.7 0.00 0.00 0.00 48 1014.7
20260902210503 35 263 4.8 11.3 0.00 0.00 0.00 47 1014.8
20260902210024 35 262 4.8 11.3 0.00 0.00 0.00 51 1014.8
20260902205503 35 249 4.8 11.3 0.00 0.00 0.00 49 1014.8
20260902205003 35 245 4.8 11.3 0.00 0.00 0.00 49 1014.8
20260902204503 35 251 3.2 8.0 0.00 0.00 0.00 52 1014.7
20260902204003 35 264 4.8 12.9 0.00 0.00 0.00 53 1014.8
20260902203524 35 256 4.8 12.9 0.00 0.00 0.00 49 1014.9
20260902203024 35 246 3.2 11.3 0.00 0.00 0.00 49 1015.0
20260902202503 35 239 4.8 9.7 0.00 0.00 0.00 53 1014.9
20260902202003 35 239 4.8 11.3 0.00 0.00 0.00 50 1015.0
20260902201503 35 253 4.8 11.3 0.00 0.00 0.00 50 1015.0
20260902201003 35 266 3.2 8.0 0.00 0.00 0.00 53 1015.1
20260902200503 35 247 3.2 16.1 0.00 0.00 0.00 49 1015.1
20260902200003 35 219 3.2 16.1 0.00 0.00 0.00 50 1015.2
20260902195503 35 216 3.2 6.4 0.00 0.00 0.00 51 1015.2
20260902195003 35 245 3.2 11.3 0.00 0.00 0.00 54 1015.2
20260902194503 35 242 3.2 11.3 0.00 0.00 0.00 51 1015.4
20260902194003 35 262 4.8 11.3 0.00 0.00 0.00 50 1015.4
20260902193503 35 265 6.4 12.9 0.00 0.00 0.00 52 1015.5
20260902193003 35 253 4.8 12.9 0.00 0.00 0.00 51 1015.6
20260902192503 35 213 3.2 11.3 0.00 0.00 0.00 55 1015.7
20260902192004 35 209 4.8 11.3 0.00 0.00 0.00 51 1015.7
20260902191503 35 254 3.2 11.3 0.00 0.00 0.00 53 1015.7
20260902191003 35 267 6.4 12.9 0.00 0.00 0.00 51 1015.8
20260902190503 35 253 6.4 12.9 0.00 0.00 0.00 49 1015.9
20260902190003 35 241 3.2 11.3 0.00 0.00 0.00 57 1015.9
20260902185503 35 254 3.2 8.0 0.00 0.00 0.00 52 1015.9
20260902185003 35 270 3.2 8.0 0.00 0.00 0.00 53 1015.9
20260902184503 35 254 4.8 11.3 0.00 0.00 0.00 52 1015.9
20260902184003 35 243 4.8 11.3 0.00 0.00 0.00 51 1015.9
20260902183503 35 246 4.8 9.7 0.00 0.00 0.00 54 1015.9
20260902183003 35 238 6.4 12.9 0.00 0.00 0.00 53 1015.8
20260902182503 34 222 4.8 12.9 0.00 0.00 0.00 56 1015.8
20260902182003 34 219 3.2 12.9 0.00 0.00 0.00 57 1015.9
20260902181524 33 255 1.6 6.4 0.00 0.00 0.00 60 1016.0
20260902181003 34 258 3.2 9.7 0.00 0.00 0.00 57 1016.0
20260902180503 34 261 4.8 11.3 0.00 0.00 0.00 55 1016.0
20260902180024 35 258 4.8 11.3 0.00 0.00 0.00 56 1016.1
20260902175503 34 238 4.8 12.9 0.00 0.00 0.00 58 1016.2
20260902175003 34 233 6.4 17.7 0.00 0.00 0.00 54 1016.2
20260902174503 34 244 6.4 17.7 0.00 0.00 0.00 53 1016.3
20260902174003 34 262 4.8 14.5 0.00 0.00 0.00 55 1016.3
20260902173503 34 274 4.8 11.3 0.00 0.00 0.00 62 1016.4
20260902173024 34 270 4.8 12.9 0.00 0.00 0.00 55 1016.5
20260902172503 34 273 4.8 12.9 0.00 0.00 0.00 63 1016.5
20260902172004 34 280 4.8 11.3 0.00 0.00 0.00 61 1016.6
20260902171503 33 279 6.4 12.9 0.00 0.00 0.00 62 1016.7
20260902171024 33 278 6.4 12.9 0.00 0.00 0.00 57 1016.7
20260902170503 33 277 4.8 11.3 0.00 0.00 0.00 63 1016.8
20260902170003 33 273 4.8 11.3 0.00 0.00 0.00 59 1016.8
20260902165503 33 261 4.8 14.5 0.00 0.00 0.00 61 1017.0
20260902165024 33 258 4.8 14.5 0.00 0.00 0.00 59 1017.0
20260902164503 33 274 4.8 11.3 0.00 0.00 0.00 62 1017.1
20260902164003 33 269 4.8 8.0 0.00 0.00 0.00 66 1017.1
20260902163524 33 269 4.8 8.0 0.00 0.00 0.00 63 1017.1
20260902163003 33 268 3.2 8.0 0.00 0.00 0.00 66 1017.3
20260902162503 33 255 4.8 9.7 0.00 0.00 0.00 61 1017.3
20260902162003 33 262 4.8 9.7 0.00 0.00 0.00 61 1017.3
20260902161503 33 260 4.8 9.7 0.00 0.00 0.00 64 1017.3
20260902161003 33 258 4.8 11.3 0.00 0.00 0.00 62 1017.3
20260902160524 32 276 4.8 11.3 0.00 0.00 0.00 61 1017.3
20260902160024 32 292 3.2 6.4 0.00 0.00 0.00 63 1017.2
20260902155503 32 275 3.2 8.0 0.00 0.00 0.00 65 1017.2
20260902155003 32 262 4.8 9.7 0.00 0.00 0.00 63 1017.4
20260902154503 32 265 3.2 11.3 0.00 0.00 0.00 62 1017.4
20260902154003 32 264 3.2 11.3 0.00 0.00 0.00 65 1017.4
20260902153503 32 280 3.2 8.0 0.00 0.00 0.00 67 1017.4
20260902153003 32 293 3.2 8.0 0.00 0.00 0.00 68 1017.5
20260902152503 32 281 3.2 8.0 0.00 0.00 0.00 68 1017.5
20260902152003 32 287 3.2 8.0 0.00 0.00 0.00 68 1017.4
20260902151503 31 283 4.8 8.0 0.00 0.00 0.00 68 1017.4
20260902151003 31 294 3.2 8.0 0.00 0.00 0.00 71 1017.4
20260902150503 31 296 3.2 8.0 0.00 0.00 0.00 70 1017.3
20260902150003 31 283 3.2 8.0 0.00 0.00 0.00 71 1017.3
20260902145503 31 270 3.2 8.0 0.00 0.00 0.00 69 1017.3
20260902145003 31 267 3.2 6.4 0.00 0.00 0.00 73 1017.3
20260902144503 30 273 4.8 6.4 0.00 0.00 0.00 71 1017.3
20260902144003 30 268 3.2 6.4 0.00 0.00 0.00 74 1017.3
20260902143503 30 268 3.2 6.4 0.00 0.00 0.00 73 1017.3
20260902143003 30 272 3.2 8.0 0.00 0.00 0.00 74 1017.3
20260902142503 30 268 3.2 8.0 0.00 0.00 0.00 74 1017.3
20260902142003 30 261 4.8 9.7 0.00 0.00 0.00 77 1017.3
20260902141503 29 262 6.4 9.7 0.00 0.00 0.00 75 1017.3
20260902141003 29 266 4.8 9.7 0.00 0.00 0.00 74 1017.3
20260902140503 28 266 3.2 9.7 0.00 0.00 0.00 75 1017.3
20260902140003 28 263 4.8 11.3 0.00 0.00 0.00 79 1017.3
20260902135503 28 262 6.4 11.3 0.00 0.00 0.00 77 1017.4
20260902135003 28 261 4.8 9.7 0.00 0.00 0.00 76 1017.3
20260902134503 28 253 3.2 8.0 0.00 0.00 0.00 80 1017.4
20260902134003 28 250 1.6 4.8 0.00 0.00 0.00 82 1017.3
20260902133503 27 243 1.6 4.8 0.00 0.00 0.00 81 1017.4
20260902133003 27 235 1.6 9.7 0.00 0.00 0.00 81 1017.4
20260902132524 27 239 3.2 9.7 0.00 0.00 0.00 81 1017.4
20260902132024 27 248 1.6 6.4 0.00 0.00 0.00 82 1017.3
20260902131503 27 218 1.6 6.4 0.00 0.00 0.00 82 1017.3
20260902131003 26 193 1.6 8.0 0.00 0.00 0.00 85 1017.3
20260902130503 26 191 1.6 8.0 0.00 0.00 0.00 85 1017.2
20260902130003 26 193 3.2 11.3 0.00 0.00 0.00 87 1017.2
20260902125503 25 199 1.6 11.3 0.00 0.00 0.00 88 1017.2
20260902125003 25 0 0.0 0.0 0.00 0.00 0.00 90 1017.2
20260902124503 25 0 0.0 0.0 0.00 0.00 0.00 92 1017.1
20260902124003 24 0 0.0 0.0 0.00 0.00 0.00 93 1017.1
20260902123524 23 0 0.0 0.0 0.00 0.00 0.00 95 1017.1
20260902123024 23 0 0.0 0.0 0.00 0.00 0.00 95 1017.2
20260902122503 23 0 0.0 0.0 0.00 0.00 0.00 97 1017.2
20260902122003 22 0 0.0 0.0 0.00 0.00 0.00 98 1017.2
20260902121503 22 0 0.0 0.0 0.00 0.00 0.00 98 1017.1
20260902121003 21 0 0.0 0.0 0.00 0.00 0.00 98 1017.1
20260902120503 21 0 0.0 0.0 0.00 0.00 0.00 98 1017.0
20260902120003 21 0 0.0 0.0 0.00 0.00 0.00 98 1016.9
20260902115503 21 0 0.0 0.0 0.00 0.00 0.00 98 1016.8
20260902115003 20 0 0.0 0.0 0.00 0.00 0.00 97 1016.8
20260902114503 20 0 0.0 0.0 0.00 0.00 0.00 98 1016.8
20260902114024 20 0 0.0 0.0 0.00 0.00 0.00 98 1016.8
20260902113503 20 0 0.0 0.0 0.00 0.00 0.00 97 1016.7
20260902113003 20 0 0.0 0.0 0.00 0.00 0.00 97 1016.7
20260902112524 19 0 0.0 0.0 0.00 0.00 0.00 97 1016.6
20260902112024 20 0 0.0 0.0 0.00 0.00 0.00 96 1016.5
20260902111503 20 0 0.0 0.0 0.00 0.00 0.00 97 1016.5
20260902111003 20 0 0.0 0.0 0.00 0.00 0.00 97 1016.5
20260902110503 20 0 0.0 0.0 0.00 0.00 0.00 97 1016.5
20260902110005 20 0 0.0 0.0 0.00 0.00 0.00 97 1016.3
20260902105503 20 0 0.0 0.0 0.00 0.00 0.00 97 1016.3
20260902105003 20 0 0.0 0.0 0.00 0.00 0.00 97 1016.3
20260902104503 20 0 0.0 0.0 0.00 0.00 0.00 97 1016.3
20260902104003 20 0 0.0 0.0 0.00 0.00 0.00 97 1016.3
20260902103503 20 0 0.0 0.0 0.00 0.00 0.00 96 1016.2
20260902103024 20 0 0.0 0.0 0.00 0.00 0.00 96 1016.2
20260902102503 20 0 0.0 0.0 0.00 0.00 0.00 96 1016.2
20260902102003 20 0 0.0 0.0 0.00 0.00 0.00 97 1016.3
20260902101503 20 0 0.0 0.0 0.00 0.00 0.00 97 1016.3
20260902101003 20 0 0.0 0.0 0.00 0.00 0.00 97 1016.2
20260902100503 20 0 0.0 0.0 0.00 0.00 0.00 97 1016.2
20260902100003 20 0 0.0 0.0 0.00 0.00 0.00 97 1016.1
20260902095503 20 0 0.0 0.0 0.00 0.00 0.00 97 1016.1
20260902095003 20 0 0.0 0.0 0.00 0.00 0.00 97 1016.0
20260902094503 20 0 0.0 0.0 0.00 0.00 0.00 97 1016.1
20260902094003 20 0 0.0 0.0 0.00 0.00 0.00 97 1016.1
20260902093503 20 0 0.0 0.0 0.00 0.00 0.00 97 1016.1
20260902093003 20 0 0.0 0.0 0.00 0.00 0.00 97 1016.0
20260902092503 20 0 0.0 0.0 0.00 0.00 0.00 97 1016.0
20260902092003 20 0 0.0 0.0 0.00 0.00 0.00 97 1016.0
20260902091503 20 0 0.0 0.0 0.00 0.00 0.00 97 1016.1
20260902091003 20 0 0.0 0.0 0.00 0.00 0.00 97 1016.0
20260902090524 20 0 0.0 0.0 0.00 0.00 0.00 97 1016.0
20260902090003 20 0 0.0 0.0 0.00 0.00 0.00 97 1016.0
20260902085503 20 0 0.0 0.0 0.00 0.00 0.00 96 1016.0
20260902085003 20 0 0.0 0.0 0.00 0.00 0.00 96 1016.0
20260902084524 20 0 0.0 0.0 0.00 0.00 0.00 96 1015.9
20260902084003 20 0 0.0 0.0 0.00 0.00 0.00 96 1015.9
20260902083503 20 0 0.0 0.0 0.00 0.00 0.00 96 1015.9
20260902083024 20 0 0.0 0.0 0.00 0.00 0.00 97 1015.8
20260902082503 20 0 0.0 0.0 0.00 0.00 0.00 97 1015.7
20260902082024 20 0 0.0 0.0 0.00 0.00 0.00 97 1015.7
20260902081503 20 0 0.0 0.0 0.00 0.00 0.00 96 1015.7
20260902081003 20 0 0.0 0.0 0.00 0.00 0.00 97 1015.7
20260902080503 20 0 0.0 0.0 0.00 0.00 0.00 96 1015.6
20260902080003 20 0 0.0 0.0 0.00 0.00 0.00 96 1015.6
20260902075524 20 0 0.0 0.0 0.00 0.00 0.00 96 1015.7
20260902075024 20 0 0.0 0.0 0.00 0.00 0.00 96 1015.6
20260902074503 20 0 0.0 0.0 0.00 0.00 0.00 96 1015.5
20260902074003 20 0 0.0 0.0 0.00 0.00 0.00 97 1015.5
20260902073503 20 0 0.0 0.0 0.00 0.00 0.00 97 1015.5
20260902073003 20 0 0.0 0.0 0.00 0.00 0.00 96 1015.5
20260902072524 20 0 0.0 0.0 0.00 0.00 0.00 96 1015.5
20260902072003 20 0 0.0 0.0 0.00 0.00 0.00 96 1015.5
20260902071524 21 0 0.0 0.0 0.00 0.00 0.00 96 1015.5
20260902071003 21 0 0.0 0.0 0.00 0.00 0.00 97 1015.5
20260902070503 20 0 0.0 0.0 0.00 0.00 0.00 96 1015.4
20260902070024 20 0 0.0 0.0 0.00 0.00 0.00 96 1015.3
20260902065503 20 0 0.0 0.0 0.00 0.00 0.00 96 1015.4
20260902065003 21 0 0.0 0.0 0.00 0.00 0.00 96 1015.4
20260902064503 21 0 0.0 0.0 0.00 0.00 0.00 96 1015.5
20260902064003 21 0 0.0 0.0 0.00 0.00 0.00 96 1015.4
20260902063503 21 0 0.0 0.0 0.00 0.00 0.00 96 1015.5
20260902063003 21 0 0.0 0.0 0.00 0.00 0.00 96 1015.5
20260902062503 21 0 0.0 0.0 0.00 0.00 0.00 96 1015.5
20260902062003 21 0 0.0 0.0 0.00 0.00 0.00 96 1015.6
20260902061524 21 0 0.0 0.0 0.00 0.00 0.00 96 1015.7
20260902061003 21 0 0.0 0.0 0.00 0.00 0.00 96 1015.7
20260902060503 21 0 0.0 0.0 0.00 0.00 0.00 96 1015.7
20260902060003 21 0 0.0 0.0 0.00 0.00 0.00 96 1015.7
20260902055524 21 0 0.0 0.0 0.00 0.00 0.00 96 1015.7
20260902055003 21 0 0.0 0.0 0.00 0.00 0.00 96 1015.8
20260902054503 21 0 0.0 0.0 0.00 0.00 0.00 96 1015.8
20260902054003 21 0 0.0 0.0 0.00 0.00 0.00 95 1015.7
20260902053503 21 0 0.0 0.0 0.00 0.00 0.00 95 1015.7
20260902053003 21 0 0.0 0.0 0.00 0.00 0.00 96 1015.7
20260902052503 21 0 0.0 0.0 0.00 0.00 0.00 96 1015.7
20260902052024 21 0 0.0 0.0 0.00 0.00 0.00 96 1015.8
20260902051503 21 0 0.0 0.0 0.00 0.00 0.00 96 1015.8
20260902051003 21 0 0.0 0.0 0.00 0.00 0.00 96 1015.8
20260902050503 21 0 0.0 0.0 0.00 0.00 0.00 95 1015.8
20260902050005 21 0 0.0 0.0 0.00 0.00 0.00 95 1015.7
20260902045503 21 0 0.0 0.0 0.00 0.00 0.00 95 1015.7
20260902045003 22 0 0.0 0.0 0.00 0.00 0.00 95 1015.7
20260902044503 22 0 0.0 0.0 0.00 0.00 0.00 95 1015.6
20260902044003 22 0 0.0 0.0 0.00 0.00 0.00 96 1015.7
20260902043503 22 0 0.0 0.0 0.00 0.00 0.00 96 1015.7
20260902043003 22 0 0.0 0.0 0.00 0.00 0.00 95 1015.6
20260902042524 22 0 0.0 0.0 0.00 0.00 0.00 95 1015.6
20260902042003 22 0 0.0 0.0 0.00 0.00 0.00 95 1015.6
20260902041503 22 0 0.0 0.0 0.00 0.00 0.00 95 1015.7
20260902041003 22 0 0.0 0.0 0.00 0.00 0.00 95 1015.7
20260902040503 22 0 0.0 0.0 0.00 0.00 0.00 95 1015.7
20260902040003 22 0 0.0 0.0 0.00 0.00 0.00 95 1015.6
20260902035503 22 0 0.0 0.0 0.00 0.00 0.00 95 1015.6
20260902035003 22 0 0.0 0.0 0.00 0.00 0.00 95 1015.6
20260902034524 22 0 0.0 0.0 0.00 0.00 0.00 95 1015.6
20260902034027 22 0 0.0 0.0 0.00 0.00 0.00 95 1015.7
20260902033503 22 0 0.0 0.0 0.00 0.00 0.00 95 1015.7
20260902033003 22 0 0.0 0.0 0.00 0.00 0.00 95 1015.7
20260902032503 22 0 0.0 0.0 0.00 0.00 0.00 94 1015.7
20260902032003 22 0 0.0 0.0 0.00 0.00 0.00 94 1015.7
20260902031503 22 0 0.0 0.0 0.00 0.00 0.00 95 1015.7
20260902031024 22 0 0.0 0.0 0.00 0.00 0.00 94 1015.7
20260902030503 22 0 0.0 0.0 0.00 0.00 0.00 94 1015.7
20260902030003 22 0 0.0 0.0 0.00 0.00 0.00 94 1015.7
20260902025524 23 0 0.0 0.0 0.00 0.00 0.00 94 1015.6
20260902025003 23 0 0.0 0.0 0.00 0.00 0.00 94 1015.7
20260902024503 23 0 0.0 0.0 0.00 0.00 0.00 93 1015.7
20260902024003 23 0 0.0 0.0 0.00 0.00 0.00 93 1015.8
20260902023503 23 0 0.0 0.0 0.00 0.00 0.00 94 1015.7
20260902023003 23 0 0.0 0.0 0.00 0.00 0.00 94 1015.6
20260902022524 23 0 0.0 0.0 0.00 0.00 0.00 93 1015.6
20260902022003 23 0 0.0 0.0 0.00 0.00 0.00 92 1015.7
20260902021524 23 0 0.0 0.0 0.00 0.00 0.00 93 1015.6
20260902021003 23 0 0.0 0.0 0.00 0.00 0.00 93 1015.6
20260902020503 23 0 0.0 0.0 0.00 0.00 0.00 92 1015.6
20260902020024 24 0 0.0 0.0 0.00 0.00 0.00 92 1015.5
20260902015503 24 0 0.0 0.0 0.00 0.00 0.00 92 1015.5
20260902015024 24 0 0.0 0.0 0.00 0.00 0.00 91 1015.6
20260902014503 24 0 0.0 0.0 0.00 0.00 0.00 91 1015.5
20260902014003 24 0 0.0 0.0 0.00 0.00 0.00 91 1015.5
20260902013503 25 0 0.0 0.0 0.00 0.00 0.00 90 1015.5
20260902013024 25 0 0.0 0.0 0.00 0.00 0.00 89 1015.5
20260902012503 25 0 0.0 0.0 0.00 0.00 0.00 89 1015.4
20260902012024 25 0 0.0 0.0 0.00 0.00 0.00 89 1015.4
20260902011503 25 0 0.0 0.0 0.00 0.00 0.00 87 1015.3
20260902011024 25 0 0.0 0.0 0.00 0.00 0.00 85 1015.3
20260902010503 25 0 0.0 0.0 0.00 0.00 0.00 85 1015.2
20260902010003 26 0 0.0 0.0 0.00 0.00 0.00 85 1015.2
20260902005503 26 0 0.0 0.0 0.00 0.00 0.00 83 1015.1
20260902005024 26 0 0.0 0.0 0.00 0.00 0.00 82 1015.1
20260902004503 26 0 0.0 0.0 0.00 0.00 0.00 82 1015.1
20260902004003 27 0 0.0 0.0 0.00 0.00 0.00 81 1015.0
20260902003503 27 0 0.0 0.0 0.00 0.00 0.00 81 1015.0
20260902003003 27 0 0.0 0.0 0.00 0.00 0.00 80 1014.9
20260902002524 27 0 0.0 0.0 0.00 0.00 0.00 79 1015.0
20260902002003 28 0 0.0 0.0 0.00 0.00 0.00 79 1015.0
20260902001524 28 231 0.0 1.6 0.00 0.00 0.00 76 1015.0
20260902001003 28 231 0.0 1.6 0.00 0.00 0.00 76 1015.1
20260902000503 29 0 0.0 0.0 0.00 0.00 0.00 75 1015.1
20260902000003 29 0 0.0 0.0 0.00 0.00 0.00 74 1015.1
20260901235503 30 229 0.0 1.6 0.00 0.00 0.00 73 1015.1
20260901235024 30 236 1.6 3.2 0.00 0.00 0.00 73 1015.2
20260901234503 31 240 0.0 3.2 0.00 0.00 0.00 72 1015.2
20260901234003 31 240 0.0 1.6 0.00 0.00 0.00 70 1015.3
20260901233503 31 240 0.0 3.2 0.00 0.00 0.00 69 1015.2
20260901233003 32 241 0.0 3.2 0.00 0.00 0.00 64 1015.3
20260901232503 32 241 0.0 1.6 0.00 0.00 0.00 63 1015.3
20260901232003 33 241 0.0 3.2 0.00 0.00 0.00 63 1015.4
20260901231503 33 241 1.6 3.2 0.00 0.00 0.00 59 1015.3
20260901231024 33 241 1.6 3.2 0.00 0.00 0.00 59 1015.4
20260901230503 33 254 1.6 3.2 0.00 0.00 0.00 59 1015.3
20260901230024 33 257 1.6 6.4 0.00 0.00 0.00 60 1015.4
20260901225503 33 255 3.2 8.0 0.00 0.00 0.00 57 1015.3
20260901225003 33 262 3.2 8.0 0.00 0.00 0.00 58 1015.4
20260901224503 33 258 3.2 8.0 0.00 0.00 0.00 58 1015.3
20260901224003 33 259 3.2 8.0 0.00 0.00 0.00 58 1015.4
20260901223503 33 266 3.2 6.4 0.00 0.00 0.00 58 1015.4